sat.trackr.live / text

‹ back to catalog

STARLINK-35687

NORAD 66524 · 2025-265J

PAYLOAD ACTIVE UNKNOWN

§ Identity

Operator
Country
US
Launch date
2025-11-19
Launch site
AFETR
Launch vehicle
Mass (kg)
RCS (m²)

Purposes: comms

External: N2YO · Heavens-Above · Gunter

§ Orbital elements

Epoch: 2026-05-25T05:19:41.377152Z

Period
94.27 min
Inclination
42.9996°
Eccentricity
0.0001497
Mean motion
15.27589300 rev/d
Perigee alt
482.0 km
Apogee alt
484.0 km
Semi-major
6,861.2 km
B*
4.7048e-4
RAAN
206.1070°
Arg perigee
263.6774°
Mean anomaly
96.3907°
Rev number
2,881

§ Raw data

STARLINK-356871 66524U 25265J   26145.22200668  .00012711  00000+0  47048-3 0  99942 66524  42.9996 206.1070 0001497 263.6774  96.3907 15.27589300 28819

JSON: /api/v1/satellites/66524 · /tle

For live sub-satellite position, see the globe view (requires WebGL).

§ Visibility from observer

Set your observer location to see the next 7 days of passes ≥ 10°. The values pass through the URL so the page stays shareable.

No JS? Fill the form by hand. The geolocation button needs JavaScript.